Regional Weather Roundup
Issued by NWS

Home | Current Version | Previous Version | Graphics & Text | Print | Product List | Glossary On
Versions: 1 2 3 4 5 6 7 8 9 10 11 12 13 14 15 16 17 18 19 20 21 22 23 24 25 26 27 28 29 30 31 32 33 34 35 36 37 38 39 40 41 42 43 44 45 46 47 48 49 50
000
ASUS43 KMKX 281121
RWRWI

WISCONSIN REGIONAL WEATHER ROUNDUP
NATIONAL WEATHER SERVICE MILWAUKEE/SULLIVAN WI
600 AM CDT THU AUG 28 2014

NOTE: "FAIR" INDICATES FEW OR NO CLOUDS BELOW 12,000 FEET WITH NO
SIGNIFICANT WEATHER AND/OR OBSTRUCTIONS TO VISIBILITY.

WIZ001-002-006>008-014>016-023>028-281200-
NORTHWEST WISCONSIN

CITY           SKY/WX    TMP DP  RH WIND       PRES   REMARKS
SUPERIOR ARPT  FOG       46  46 100 CALM      30.12S VSB 1/4
ASHLAND        CLEAR     46  44  93 CALM      30.15S FOG
HAYWARD        CLEAR     50  48  93 CALM      30.14F
SIREN          CLEAR     52  51  95 CALM      30.11S
RICE LAKE      CLEAR     53  48  83 E5        30.14F
LADYSMITH      CLEAR     51  47  86 E6        30.16S
EAU CLAIRE     CLEAR     53  50  89 NE5       30.11F
MENOMONIE      SUNNY     55  52  90 CALM      30.11F
NEW RICHMOND   CLEAR     56  53  88 SE5       30.10F
OSCEOLA        CLEAR     58  54  88 E5        30.12S
$$

WIZ003>005-009-010-017-018-281200-
NORTH CENTRAL WISCONSIN

CITY           SKY/WX    TMP DP  RH WIND       PRES   REMARKS
WOODRUFF       CLEAR     49  47  93 CALM      30.17S
RHINELANDER    CLEAR     46  46 100 CALM      30.18S FOG
EAGLE RIVER    CLEAR     39  39 100 CALM      30.16F
LAND O LAKES   CLEAR     39  39 100 CALM      30.19S
PHILLIPS       CLEAR     47  46  95 CALM      30.15S
TOMAHAWK       CLEAR     38  37  97 CALM      30.18R FOG
MEDFORD        CLEAR     46  46  97 E5        30.16R
MERRILL        CLEAR     45  44  99 CALM      30.17S
$$

WIZ029-030-035-036-043>047-281200-
CENTRAL WISCONSIN

CITY           SKY/WX    TMP DP  RH WIND       PRES   REMARKS
WAUSAU         CLEAR     52  49  89 CALM      30.15S
MOSINEE        CLEAR     48  48 100 NE6       30.16S
MARSHFIELD     CLEAR     52  49  89 NE7       30.14S
STEVENS POINT  FOG       51  51  99 CALM      30.16S VSB 1
WAUPACA        CLOUDY    60  59  95 CALM      30.15S
WAUTOMA        LGT RAIN  57  57 100 CALM      30.15S FOG
WISC RAPIDS    CLEAR     54  51  90 NE3       30.15S
CAMP DOUGLAS   FOG       50  50 100 CALM      30.13S VSB 3/4
$$

WIZ011>013-019>022-031-037>040-048>050-281200-
NORTHEAST WISCONSIN

CITY           SKY/WX    TMP DP  RH WIND       PRES   REMARKS
ANTIGO         MOCLDY    47  47 100 NE5       30.17S FOG
STURGEON BAY   PTCLDY    55  52  88 SE5       30.17F
GREEN BAY      CLOUDY    59  57  93 SE3       30.16S
MANITOWOC      PTCLDY    53  53 100 CALM      30.17R
APPLETON       CLOUDY    59  55  88 CALM      30.16S
CLINTONVILLE   CLOUDY    57  55  94 CALM      30.15F
OSHKOSH        CLOUDY    59  57  93 S3        30.14S
$$

WIZ032>034-041-042-053>061-281200-
SOUTHWEST WISCONSIN

CITY           SKY/WX    TMP DP  RH WIND       PRES   REMARKS
LA CROSSE      PTCLDY    60  58  92 SE3       30.11S
SPARTA         CLEAR     52  51  94 CALM      30.13S
VIROQUA        FAIR      57  57 100 E5        30.13R
BOSCOBEL       FOG       61  59  93 VRB3      30.12S VSB 1/2
PRAIRIE DU CHI PTCLDY    59  58  96 E3        30.10S
PLATTEVILLE    FAIR      62  61  96 CALM      30.13R
$$

WIZ056-057-062-063-064-067-068-281200-
SOUTH CENTRAL WISCONSIN

CITY           SKY/WX    TMP DP  RH WIND       PRES   REMARKS
BARABOO/DELLS  CLEAR     59  57  94 CALM      30.13F FOG
LONE ROCK      MOCLDY    61  57  87 CALM      30.13S FOG
WATERTOWN      CLEAR     55  55 100 CALM      30.14R
MADISON        PTCLDY    57  55  93 CALM      30.14S FOG
MIDDLETON      FAIR      60  60  99 CALM      30.13F
MONROE         FOG       59  59 100 E5        30.13S VSB 1/2
JANESVILLE     CLEAR     61  57  88 CALM      30.13S
$$

WIZ051-052-058>065-066-070>072-281200-
SOUTHEAST WISCONSIN

CITY           SKY/WX    TMP DP  RH WIND       PRES   REMARKS
MILWAUKEE      PTCLDY    62  55  77 E8        30.14S
WAUKESHA       CLEAR     54  54 100 CALM      30.16S
MILWAUKEE/TIMM CLEAR     55  52  88 CALM      30.15S
RACINE         CLEAR     64  56  75 E7        30.16R
BURLINGTON     CLEAR     52  52 100 CALM      30.14S
KENOSHA        CLEAR     58  55  90 E7        30.14S
FOND DU LAC    CLEAR     58  55  90 CALM      30.15S
SHEBOYGAN      CLEAR     54  53  97 CALM      30.16S
WEST BEND      CLEAR     52  50  93 CALM      30.16R
JUNEAU         CLEAR     56  55  96 CALM      30.15S
$$

LSZ147-162-281200-
LAKE SUPERIOR

STATION/POSITION TIME  TEMP    WIND        PRES    WAVE
                       AIR SEA DIR/SP/G            HT/PER
                 (UTC) (F)     (DEG/KT/KT) (MB)    (FT/S)
W MID LAKE BUOY  1050   58 56  140/  6/  6 1020.5S   1
DEVILS ISLAND    1100   59     190/  7/ 10 1020.5R
PORT WING        1000   56     100/  1/  2 1020.3S
SAXON HARBOR     1000   55     200/  5/  7 1020.3F
$$

LMZ867-665-643>646-281200-
LAKE MICHIGAN

STATION/POSITION TIME  TEMP    WIND        PRES    WAVE
                       AIR SEA DIR/SP/G            HT/PER
                 (UTC) (F)     (DEG/KT/KT) (MB)    (FT/S)
N MID LAKE BUOY  1050   62 65   80/  4/  6 1021.8R   0
NORTHPORT PIER   1000   59     170/  2/  4 1021.3S
SISTER BAY       0911   58        CALM       N/A
KEWAUNEE LAKESHO 1100   63     140/  6/  8 1020.5R
SHEBOYGAN LAKESH 1100   65 68  120/ 13/ 14 1021.1F
ATWATER BUOY     1100   67     120/ 12/ 16 1021.7R
MILWAUKEE LAKESH 1100   66     110/ 12/ 13   N/A
S MID LAKE BUOY  1050   65 69   90/ 14/ 16 1020.8S   2/ 3
KENOSHA   LAKESH 1100   67     100/ 15/ 17 1020.3R
$$

TC  - TEMPERATURE IN CELSIUS
VSB - VISIBILITY IN STATUTE MILES
WCI - WIND CHILL INDEX
HX  - HEAT INDEX




USA.gov is the U.S. government's official web portal to all federal, state and local government web resources and services.